Regional Weather Roundup
Issued by NWS

Home | Current Version | Previous Version | Text Only | Print | Product List | Glossary On
Versions: 1 2 3 4 5 6 7 8 9 10 11 12 13 14 15 16 17 18 19 20 21 22 23 24 25 26 27 28 29 30 31 32 33 34 35 36 37 38 39 40 41 42 43 44 45 46 47 48 49 50
159
ASUS44 KJAN 230003
RWRMS

MISSISSIPPI HOURLY WEATHER ROUNDUP
NATIONAL WEATHER SERVICE JACKSON MS
600 PM CST SAT NOV 22 2014

NOTE: "FAIR: INDICATES FEW OR NO CLOUDS BELOW 12,000 FEET WITH NO
SIGNIFICANT WEATHER AND/OR OBSTRUCTIONS TO VISIBILITY.

MSZ001>002-007>008-010>013-018>021-025>028-034>036-230100-
NORTHWEST MISSISSIPPI

CITY           SKY/WX    TMP DP  RH WIND       PRES   REMARKS
CLARKSDALE     FAIR      59  50  72 SE6       30.04S
CLEVELAND      FAIR      62  53  72 SE7       30.03S
GREENWOOD      CLOUDY    62  48  60 SE5       30.05S
6HR MIN TEMP:  62; 6HR MAX TEMP:  73;

GREENVILLE     CLOUDY    62  52  69 SE9       30.02S
6HR MIN TEMP:  62; 6HR MAX TEMP:  71;

GRENADA        FAIR      55  46  71 CALM      30.06S
OLIVE BRANCH   CLEAR     55  39  54 SE5       30.06R
OXFORD         FAIR      55  43  62 SE7       30.08S
TUNICA         PTCLDY    57  45  62 E6        30.04S
$$

MSZ003>006-009-014>017-022>024-029>033-037>039-230100-
NORTHEAST MISSISSIPPI

CITY           SKY/WX    TMP DP  RH WIND       PRES   REMARKS
COLUMBUS AFB   CLOUDY    57  49  74 SE7       30.09F
6HR MIN TEMP:  55; 6HR MAX TEMP:  69; 6HR PCP: TRACE;

CORINTH        FAIR      57  37  47 SE5       30.08R
GOLDN TRIANGLE CLEAR     63  48  59 SE9       30.08F
STARKVILLE     FAIR      61  50  67 SE6       30.08S
TUPELO         CLOUDY    61  45  55 S5        30.08F
6HR MIN TEMP:  61; 6HR MAX TEMP:  68; 6HR PCP: TRACE;

$$

MSZ040-058-230100-
CENTRAL MISSISSIPPI

CITY           SKY/WX    TMP DP  RH WIND       PRES   REMARKS
JACKSON INTL   CLOUDY    61  51  70 SE7       30.04F
6HR MIN TEMP:  60; 6HR MAX TEMP:  71;

JACKSON HAWKNS CLOUDY    63  50  62 SE7       30.04F
6HR MIN TEMP:  63; 6HR MAX TEMP:  71;

MERIDIAN KEY   MOCLDY    63  52  67 SE6       30.08F
6HR MIN TEMP:  63; 6HR MAX TEMP:  70;

MERIDIAN NAS   CLOUDY    61  52  72 E7        30.08F
6HR MIN TEMP:  61; 6HR MAX TEMP:  70;

RAYMOND        FAIR      63  57  82 SE6       30.04S
VICKSBURG      CLOUDY    64  52  64 SE8       30.03R
6HR MIN TEMP:  64; 6HR MAX TEMP:  71;

$$

MSZ059>079-230100-
SOUTH MISSISSIPPI

CITY           SKY/WX    TMP DP  RH WIND       PRES   REMARKS
BROOKHAVEN     FAIR      61  52  72 CALM      30.06S
HATTIESBURG    CLOUDY    65  54  67 E7        30.07S
6HR MIN TEMP:  64; 6HR MAX TEMP:  70;

MCCOMB         CLOUDY    62  53  72 E5        30.04R
6HR MIN TEMP:  62; 6HR MAX TEMP:  69;

NATCHEZ        CLOUDY    64  55  72 SE8       30.00F
6HR MIN TEMP:  64; 6HR MAX TEMP:  72;

PINE BELT      CLOUDY    63  52  67 SE6       30.08S
6HR MIN TEMP:  61; 6HR MAX TEMP:  66;

$$

MSZ080>082-230100-
COASTAL MISSISSIPPI

CITY           SKY/WX    TMP DP  RH WIND       PRES   REMARKS
BAY ST LOUIS   CLOUDY    64  57  77 E13G18    30.05F
BILOXI         CLOUDY    64  60  87 E10       30.07R
6HR MIN TEMP:  63; 6HR MAX TEMP:  68;

PASCAGOULA     CLOUDY    63  59  87 E9        30.08S
6HR MIN TEMP:  63; 6HR MAX TEMP:  70;

GULFPORT       CLOUDY    64  59  83 E12       30.06S
6HR MIN TEMP:  64; 6HR MAX TEMP:  67;

$$



USA.gov is the U.S. government's official web portal to all federal, state and local government web resources and services.